Weather in Duluth

United States     46°47′40″N   92°05′37″W
temp.,
°C
wind,
m/s
gust,
m/s
humid.,
%
clouds,
%
prec.,
mm/h
press.,
hPa
HPBL,
m
7 may, fri
fri701:00+3nw37833 0.5 1018129
04:00+2nnw410752 0.0 1019236
07:00+1nnw410762 0.0 1020392
10:00+6nnw575786 0.0 10211052
13:00+8nw464596 0.0 10201270
16:00+10ne253990 0.0 10181454
19:00+7ene3458100 0.0 1019164
22:00+4nw11640 0.0 102010
8 may, sat
sat801:00+3wsw12640 0.0 102014
04:00+2wsw22684 0.0 102028
07:00+3wsw12644 0.0 102151
10:00+8wsw12490 0.0 1018505
13:00+11sse224155 0.0 10171216
16:00+11e3347100 0.0 1015846
19:00+5ne4673100 0.0 1015150
22:00+4ne267473 0.0 1017139
9 may, sun
sun901:00+3ne368298 0.0 1017174
04:00+2ne510825 0.0 1017315
07:00+3ne6117433 0.0 1018585
10:00+5ene810655 0.0 1020816
13:00+5ene676428 0.0 1020726
16:00+5e346320 0.0 1019405
19:00+4ne586584 0.0 1021287
22:00+2ne347829 0.0 102373
10 may, mon
mon1001:00+1nnw11745 0.0 102432
04:000nw12745 0.0 102555
07:00+2n12662 0.0 1027108
10:00+6ene235234 0.0 1026901
13:00+8e244689 0.0 10261306
16:00+11n144093 0.0 10241553
19:00+11nnw36438 0.0 1023289
22:00+7wnw22535 0.0 102515
11 may, tue
tue1101:00+5w22642 0.0 102622
04:00+3w22685 0.0 102727
07:00+4wsw23705 0.0 102887
10:00+12w35475 0.0 1028545
13:00+14wsw23395 0.0 10261370
16:00+16sw34365 0.0 10241542
19:00+15sw584722 0.0 1024281
22:00+10wsw3564100 0.0 102576